User: anonymous   Login
Location: Vale
(35.4830°N, 81.3830°W)
Time: 08:29:31
(UTC-04:00)
Language:

Cosmos 2237 Rocket - Orbit

View from above orbital plane
View from above orbital plane
View from above satellite
View from above satellite

Ground track
Ground track

The orbit data is extracted from the following two-line orbital elements,

1 22566U 93016B   18173.93042638 +.00000252 +00000-0 +15488-3 0  9993
2 22566 071.0078 008.7010 0012274 286.1297 073.8475 14.14955472303702
Epoch (UTC): 22 June 2018 22:19:48
Eccentricity: 0.0012274
inclination: 71.0078°
perigee height: 833 km
apogee height: 851 km
right ascension of ascending node: 8.7010°
argument of perigee: 286.1297°
revolutions per day: 14.14955472
mean anomaly at epoch: 73.8475°
orbit number at epoch: 30370

The dashed part of the orbit path shows where the satellite is in the earth's shadow,  

DLR